Regional Weather Roundup
Issued by NWS

Home | Current Version | Previous Version | Text Only | Print | Product List | Glossary Off
Versions: 1 2 3 4 5 6 7 8 9 10 11 12 13 14 15 16 17 18 19 20 21 22 23 24 25 26 27 28 29 30 31 32 33 34 35 36 37 38 39 40 41 42 43 44 45 46 47

000
ASUS45 KSLC 211010
RWRUT

UTAH REGIONAL WEATHER ROUNDUP
NATIONAL WEATHER SERVICE SALT LAKE CITY UT
400 AM MDT SUN SEP 21 2014

UTZ001>011-023>025-211100-

NORTHERN UTAH

CITY           SKY/WX    TMP DP  RH WIND       PRES   REMARKS
HILL AFB       MOCLDY    65  37  35 E15       30.11S
LOGAN          CLEAR     52  49  89 CALM      30.12F
OGDEN          MOCLDY    65  39  38 S9        30.08S
PROVO AIRPORT  MOCLDY    63  50  63 S5        30.11R
SALT LAKE CITY MOCLDY    66  51  58 NE5       30.06F
VERNAL         CLEAR     60  36  40 NW7       30.16S
WENDOVER       CLOUDY    72  45  37 W7        30.07F
HEBER CITY     MOCLDY    50  45  81 CALM      30.18S
WEST JORDAN    CLEAR     63  43  48 NW3       30.09F

$$

UTZ012>022-026-027-211100-

SOUTHERN UTAH

CITY           SKY/WX    TMP DP  RH WIND       PRES   REMARKS
BRYCE CANYON   LGT RAIN  53  51  93 NE14      30.29F
CEDAR CITY     LGT RAIN  59  55  87 NE6       30.12F
MILFORD        CLOUDY    62  56  80 N8        30.11F
MOAB/CYNLANDS  MOCLDY    71  54  54 CALM      30.09R
PRICE          CLOUDY    69  36  29 SW6       30.20R
ST GEORGE      PTSUNNY   72  57  60 CALM      30.00S
KANAB          MOCLDY    64  54  68 CALM      30.16R

$$

REGIONAL REPORTS     COLORADO/ARIZONA

CITY           SKY/WX    TMP DP  RH WIND       PRES   REMARKS
CRAIG, CO      CLEAR     41  34  76 CALM      30.26R
GRAND JUNCTION MOCLDY    69  41  36 E10       30.15R
RIFLE          PTCLDY    57  42  57 SE5       30.20R
MONTROSE       LGT RAIN  66  48  52 E3        30.25R
CORTEZ         LGT RAIN  60  56  86 E7        30.27S
PAGE, AZ       LGT RAIN  71  56  58 S7        30.12R
GRAND CANYON   MOCLDY    55  52  89 CALM      30.23F
KINGMAN        CLOUDY    76  55  48 SW9       30.00S
FLAGSTAFF      MOCLDY    54  52  93 CALM      30.26S

$$

REGIONAL REPORTS    NEVADA/IDAHO/WYOMING

CITY           SKY/WX    TMP DP  RH WIND       PRES   REMARKS
LAS VEGAS, NV  MOCLDY    77  58  51 CALM      29.90S
ELY            TSTM      55  53  93 SE6       30.26R
ELKO           CLOUDY    59  51  75 SW8       30.19S
POCATELLO, ID  CLEAR     51  46  83 W6        30.13S
BURLEY         CLOUDY    53  46  77 CALM      30.09F
EVANSTON, WY   PTCLDY    54  35  48 E12       30.29F
ROCK SPRINGS   CLEAR     50  37  61 NE8       30.33R

$$


USA.gov is the U.S. government's official web portal to all federal, state and local government web resources and services.